Wroclaw, Poland

10:22 AM CET on February 22, 2017 (GMT +0100)
Strachowice

Weather History for EPWR - July, 2013

Change the Weather History Date:

Wednesday, July 24, 2013

  Actual Average Record
Temperature  
Mean Temperature 65 °F -  
Max Temperature 79 °F 74 °F 86 °F (2006)
Min Temperature 51 °F 53 °F 48 °F (2011)
Growing Degree Days 15 (Base 50)    
Moisture  
Dew Point 54 °F    
Average Humidity 62    
Maximum Humidity 94    
Minimum Humidity 31    
Precipitation  
Precipitation 0.00 in 0.10 in - ()
Sea Level Pressure  
Sea Level Pressure 30.01 in    
Wind  
Wind Speed 3 mph ()    
Max Wind Speed 7 mph    
Max Gust Speed -    
Averages and records for this station are not official NWS values.
T = Trace of Precipitation, MM = Missing Value Source: Averaged Metar Reports

Daily Weather History Graph

Daily Weather History Graph

Search for Another Location

Airport or City:

Trip Planner

Search our weather history database for the weather conditions in past years. The results will help you decide how hot, cold, wet, or windy it might be!

Date:

Astronomy

Jul. 24, 2013 Rise Set
Actual Time 5:06 AM CEST 8:50 PM CEST
Civil Twilight 4:24 AM CEST 9:32 PM CEST
Nautical Twilight 3:26 AM CEST 10:29 PM CEST
Astronomical Twilight 1:54 AM CEST 11:58 PM CEST
Moon 9:20 PM CEST (7/24) 7:26 AM CEST (7/24)
Length of Visible Light 17h 07m
Length of Day
15h 44m
Waning Gibbous, 96% of the Moon is Illuminated
Jul 24
Waning Gibbous
Jul 29
Last Quarter
Aug 6
New
Aug 14
First Quarter
Aug 21
Full

Hourly Weather History & Observations

Time (CEST) Temp. Heat Index Dew Point Humidity Pressure Visibility Wind Dir Wind Speed Gust Speed Precip Events Conditions
12:00 AM 60.8 °F - 53.6 °F 77% 29.98 in - NNW 1.2 mph - N/A   Clear
12:30 AM 59.0 °F - 53.6 °F 82% 29.98 in - Variable 2.3 mph - N/A   Clear
1:00 AM 60.8 °F - 51.8 °F 72% 30.01 in - NNW 2.3 mph - N/A   Clear
1:30 AM 57.2 °F - 53.6 °F 88% 30.01 in - Variable 2.3 mph - N/A   Clear
2:00 AM 59 °F - 51 °F 69% 30.01 in 31 mi North 4.5 mph - -  
2:00 AM 57.2 °F - 51.8 °F 82% 30.01 in - Variable 1.2 mph - N/A   Clear
2:30 AM 57.2 °F - 50.0 °F 77% 30.01 in - Variable 1.2 mph - N/A   Clear
3:00 AM 59.0 °F - 50.0 °F 72% 30.01 in - Variable 1.2 mph - N/A   Clear
3:30 AM 55.4 °F - 50.0 °F 82% 30.01 in - Variable 2.3 mph - N/A   Clear
4:00 AM 55.4 °F - 50.0 °F 82% 30.01 in - NW 3.5 mph - N/A   Clear
4:30 AM 53.6 °F - 50.0 °F 88% 30.01 in - WNW 3.5 mph - N/A   Clear
5:00 AM 53.6 °F - 50.0 °F 88% 30.01 in - West 1.2 mph - N/A   Clear
5:30 AM 51.8 °F - 50.0 °F 94% 30.01 in - SW 2.3 mph - N/A   Clear
6:00 AM 53.6 °F - 50.0 °F 88% 30.01 in - West 1.2 mph - N/A   Clear
6:30 AM 57.2 °F - 53.6 °F 88% 30.01 in - WSW 1.2 mph - N/A   Clear
7:00 AM 59.0 °F - 53.6 °F 82% 30.04 in - SW 1.2 mph - N/A   Clear
7:30 AM 60.8 °F - 53.6 °F 77% 30.04 in - NNE 3.5 mph - N/A   Clear
8:00 AM 62 °F - 53 °F 63% 30.04 in 31 mi NNE 4.5 mph - -  
8:00 AM 64.4 °F - 53.6 °F 68% 30.04 in - NNE 3.5 mph - N/A   Clear
8:30 AM 66.2 °F - 53.6 °F 64% 30.04 in - NNE 4.6 mph - N/A   Clear
9:00 AM 68.0 °F - 53.6 °F 60% 30.04 in - ENE 6.9 mph - N/A   Clear
9:30 AM 69.8 °F - 53.6 °F 56% 30.04 in - Variable 4.6 mph - N/A   Clear
10:00 AM 71.6 °F - 53.6 °F 53% 30.04 in - Variable 3.5 mph - N/A   Clear
10:30 AM 71.6 °F - 53.6 °F 53% 30.04 in - Variable 3.5 mph - N/A   Clear
11:00 AM 70 °F - 52 °F 43% 30.03 in 31 mi West 4.5 mph - -   Scattered Clouds
11:00 AM 73.4 °F - 51.8 °F 47% 30.04 in - Variable 3.5 mph - N/A   Clear
11:30 AM 73.4 °F - 51.8 °F 47% 30.04 in - Variable 4.6 mph - N/A   Clear
12:00 PM 75.2 °F - 53.6 °F 47% 30.04 in - Variable 4.6 mph - N/A   Clear
12:30 PM 75.2 °F - 53.6 °F 47% 30.04 in - Variable 5.8 mph - N/A   Clear
1:00 PM 77.0 °F - 55.4 °F 47% 30.04 in - NNE 6.9 mph - N/A   Clear
1:30 PM 77.0 °F - 53.6 °F 44% 30.04 in - Variable 5.8 mph - N/A   Clear
2:00 PM 75 °F - 54 °F 37% 30.00 in 31 mi NE 4.5 mph - -   Scattered Clouds
2:00 PM 78.8 °F - 53.6 °F 42% 30.06 in - Variable 5.8 mph - N/A   Clear
2:30 PM 78.8 °F - 55.4 °F 44% 30.04 in - Variable 5.8 mph - N/A   Clear
3:00 PM 78.8 °F - 55.4 °F 44% 30.01 in - Variable 4.6 mph - N/A   Clear
3:30 PM 78.8 °F - 55.4 °F 44% 30.01 in - NE 4.6 mph - N/A   Clear
4:00 PM 80.6 °F 80.5 °F 55.4 °F 42% 30.01 in - ENE 6.9 mph - N/A   Clear
4:30 PM 80.6 °F 80.5 °F 55.4 °F 42% 30.01 in - Variable 4.6 mph - N/A   Clear
5:00 PM 79 °F - 54 °F 31% 29.97 in 31 mi NE 4.5 mph - -   Scattered Clouds
5:00 PM 80.6 °F 80.5 °F 55.4 °F 42% 29.98 in - NW 5.8 mph - N/A   Clear
5:30 PM 80.6 °F 80.3 °F 53.6 °F 39% 29.98 in - Variable 4.6 mph - N/A   Clear
6:00 PM 80.6 °F 80.5 °F 55.4 °F 42% 29.98 in - Variable 3.5 mph - N/A   Clear
6:30 PM 80.6 °F 80.8 °F 57.2 °F 45% 29.98 in - North 4.6 mph - N/A   Clear
7:00 PM 80.6 °F 80.5 °F 55.4 °F 42% 29.98 in - Variable 3.5 mph - N/A   Clear
7:30 PM 80.6 °F 80.8 °F 57.2 °F 45% 29.98 in - NNW 3.5 mph - N/A   Clear
8:00 PM 77 °F - 56 °F 38% 29.96 in 31 mi North 4.5 mph - -   Scattered Clouds
8:00 PM 78.8 °F - 59.0 °F 51% 29.98 in - Variable 2.3 mph - N/A   Clear
8:30 PM 71.6 °F - 60.8 °F 69% 29.98 in - Variable 1.2 mph - N/A   Clear
9:00 PM 69.8 °F - 60.8 °F 73% 29.98 in - Variable 2.3 mph - N/A   Clear
9:30 PM 69.8 °F - 59.0 °F 68% 30.01 in - Variable 1.2 mph - N/A   Clear
10:00 PM 66.2 °F - 59.0 °F 78% 30.01 in - South 2.3 mph - N/A   Clear
10:30 PM 66.2 °F - 59.0 °F 78% 30.01 in - Calm Calm - N/A   Clear
11:00 PM 66 °F - 57 °F 66% 29.99 in 31 mi Calm Calm - -   Clear
11:00 PM 64.4 °F - 59.0 °F 83% 29.98 in - SSE 1.2 mph - N/A   Clear
11:30 PM 64.4 °F - 59.0 °F 83% 29.98 in - South 1.2 mph - N/A   Clear